Weather History for Shannon, Ireland

Change the Weather History Date:

Wednesday, July 24, 2013

  Actual Average Record
Temperature  
Mean Temperature 64 °F -  
Max Temperature 68 °F 67 °F 77 °F (2008)
Min Temperature 60 °F 53 °F 46 °F (2006)
Degree Days  
Heating Degree Days 1    
Growing Degree Days 14 (Base 50)    
Moisture  
Dew Point 60 °F    
Average Humidity 87    
Maximum Humidity 100    
Minimum Humidity 72    
Precipitation  
Precipitation 0.24 in 0.10 in - ()
Sea Level Pressure  
Sea Level Pressure 29.76 in    
Wind  
Wind Speed 11 mph ()    
Max Wind Speed 25 mph    
Max Gust Speed -    
Visibility 6.5 miles    
Events Rain    
Averages and records for this station are not official NWS values.
T = Trace of Precipitation, MM = Missing Value Source: Averaged Metar Reports

Daily Weather History Graph

Daily Weather History Graph

Search for Another Location

Airport:

Trip Planner

Search our weather history database for the weather conditions in past years. The results will help you decide how hot, cold, wet, or windy it might be!

Date:

Astronomy

Jul. 24, 2013 Rise Set
Actual Time 5:42 AM IST 9:40 PM IST
Civil Twilight 4:57 AM IST 10:25 PM IST
Nautical Twilight 3:54 AM IST 11:28 PM IST
Astronomical Twilight 2:14 AM IST 1:09 AM IST
Moon 10:07 PM IST (7/24) 8:12 AM IST (7/24)
Length of Visible Light 17h 27m
Length of Day
15h 58m
Waning Gibbous, 96% of the Moon is Illuminated
Jul 24
Waning Gibbous
Jul 29
Last Quarter
Aug 6
New
Aug 14
First Quarter
Aug 21
Full

Hourly Weather History & Observations

Time (IST) Temp. Dew Point Humidity Pressure Visibility Wind Dir Wind Speed Gust Speed Precip Events Conditions
12:00 AM 62.6 °F 57.2 °F 82% 29.80 in 6.2 mi South 10.4 mph - N/A   Mostly Cloudy
12:30 AM 62.6 °F 57.2 °F 82% 29.80 in 6.2 mi SSE 11.5 mph - N/A   Mostly Cloudy
1:00 AM 62 °F 58 °F 81% 29.81 in 12 mi SSE 11.2 mph - -   Scattered Clouds
1:00 AM 62.6 °F 57.2 °F 82% 29.80 in 6.2 mi SSE 10.4 mph - N/A   Mostly Cloudy
1:30 AM 62.6 °F 57.2 °F 82% 29.80 in 6.2 mi SSE 11.5 mph - N/A   Mostly Cloudy
2:00 AM 62.6 °F 59.0 °F 88% 29.80 in 6.2 mi SSE 8.1 mph - N/A   Mostly Cloudy
2:30 AM 62.6 °F 59.0 °F 88% 29.80 in 6.2 mi SSE 10.4 mph - N/A Rain Light Rain Showers
3:00 AM 60.8 °F 59.0 °F 94% 29.80 in 6.2 mi SE 10.4 mph - N/A   Mostly Cloudy
3:30 AM 62.6 °F 59.0 °F 88% 29.77 in 6.2 mi SE 10.4 mph - N/A   Mostly Cloudy
4:00 AM 62.6 °F 59.0 °F 88% 29.77 in 6.2 mi ESE 10.4 mph - N/A   Mostly Cloudy
4:30 AM 62.6 °F 59.0 °F 88% 29.77 in 6.2 mi SE 10.4 mph - N/A   Mostly Cloudy
5:00 AM 62.6 °F 59.0 °F 88% 29.77 in 6.2 mi SE 9.2 mph - N/A   Mostly Cloudy
5:30 AM 62.6 °F 59.0 °F 88% 29.77 in 6.2 mi SE 10.4 mph - N/A   Mostly Cloudy
6:00 AM 62.6 °F 59.0 °F 88% 29.77 in 6.2 mi SE 10.4 mph - N/A   Mostly Cloudy
6:30 AM 62.6 °F 59.0 °F 88% 29.77 in 6.2 mi ESE 9.2 mph - N/A   Mostly Cloudy
7:00 AM 63 °F 59 °F 83% 29.78 in 16 mi ESE 13.4 mph - -   Partly Cloudy
7:00 AM 62.6 °F 59.0 °F 88% 29.77 in 6.2 mi ESE 12.7 mph - N/A   Mostly Cloudy
7:30 AM 62.6 °F 59.0 °F 88% 29.77 in 6.2 mi ESE 12.7 mph - N/A Rain Light Rain
8:00 AM 62.6 °F 60.8 °F 94% 29.77 in 6.2 mi ESE 13.8 mph - N/A Rain Light Rain
8:30 AM 62.6 °F 60.8 °F 94% 29.77 in 6.2 mi ESE 12.7 mph - N/A   Mostly Cloudy
9:00 AM 62.6 °F 60.8 °F 94% 29.77 in 5.6 mi SE 10.4 mph - N/A Rain Light Rain
9:30 AM 62.6 °F 60.8 °F 94% 29.77 in 3.7 mi SSE 12.7 mph - N/A Rain Light Rain
10:00 AM 60.8 °F 60.8 °F 100% 29.77 in 5.6 mi SE 12.7 mph - N/A Rain Light Rain
10:30 AM 62.6 °F 60.8 °F 94% 29.77 in 6.2 mi SE 12.7 mph - N/A Rain Light Rain
11:00 AM 62.6 °F 60.8 °F 94% 29.74 in 6.2 mi SE 13.8 mph - N/A   Mostly Cloudy
11:30 AM 64.4 °F 60.8 °F 88% 29.74 in 6.2 mi ESE 16.1 mph - N/A   Mostly Cloudy
12:00 PM 64.4 °F 60.8 °F 88% 29.74 in 6.2 mi ESE 13.8 mph - N/A   Mostly Cloudy
12:30 PM 66.2 °F 60.8 °F 83% 29.74 in 6.2 mi SE 17.3 mph - N/A   Mostly Cloudy
1:00 PM 67 °F 60 °F 72% 29.75 in 16 mi SSE 24.6 mph - -   Partly Cloudy
1:00 PM 66.2 °F 60.8 °F 83% 29.74 in 6.2 mi SSE 24.2 mph - N/A   Mostly Cloudy
1:30 PM 68.0 °F 60.8 °F 78% 29.74 in 6.2 mi SSE 25.3 mph - N/A   Mostly Cloudy
2:00 PM 68.0 °F 59.0 °F 73% 29.74 in 6.2 mi SSE 25.3 mph - N/A   Mostly Cloudy
2:30 PM 68.0 °F 59.0 °F 73% 29.71 in 6.2 mi SSE 23.0 mph - N/A   Mostly Cloudy
3:00 PM 68.0 °F 59.0 °F 73% 29.74 in 6.2 mi SSE 20.7 mph - N/A   Mostly Cloudy
3:30 PM 68.0 °F 59.0 °F 73% 29.74 in 6.2 mi SSE 21.9 mph - N/A   Mostly Cloudy
4:00 PM 66.2 °F 60.8 °F 83% 29.74 in 6.2 mi SE 18.4 mph - N/A   Mostly Cloudy
4:30 PM 68.0 °F 60.8 °F 78% 29.71 in 6.2 mi SE 15.0 mph - N/A   Mostly Cloudy
5:00 PM 68.0 °F 60.8 °F 78% 29.71 in 6.2 mi SSE 17.3 mph - N/A   Mostly Cloudy
5:30 PM 68.0 °F 60.8 °F 78% 29.71 in 6.2 mi SSE 16.1 mph - N/A   Mostly Cloudy
6:00 PM 68.0 °F 60.8 °F 78% 29.71 in 6.2 mi SSE 17.3 mph - N/A   Mostly Cloudy
6:30 PM 68.0 °F 60.8 °F 78% 29.71 in 6.2 mi SSE 17.3 mph - N/A   Mostly Cloudy
7:00 PM 65 °F 62 °F 85% 29.75 in 12 mi WSW 6.7 mph - -   Partly Cloudy
7:00 PM 64.4 °F 60.8 °F 88% 29.74 in 6.2 mi WSW 9.2 mph - N/A   Mostly Cloudy
7:30 PM 64.4 °F 62.6 °F 94% 29.74 in 6.2 mi WSW 6.9 mph - N/A Rain Light Rain Showers
8:00 PM 62.6 °F 60.8 °F 94% 29.74 in 3.7 mi WSW 6.9 mph - N/A Rain Light Rain Showers
8:30 PM 60.8 °F 60.8 °F 100% 29.74 in 1.6 mi West 5.8 mph - N/A Rain Light Rain Showers
9:00 PM 60.8 °F 60.8 °F 100% 29.74 in - WSW 5.8 mph - N/A Rain Light Rain Showers
9:30 PM 60.8 °F 60.8 °F 100% 29.74 in 4.3 mi WNW 6.9 mph - N/A Rain Light Rain Showers
10:00 PM 60.8 °F 60.8 °F 100% 29.77 in 3.7 mi NW 3.5 mph - N/A Rain Light Rain Showers
10:30 PM 60.8 °F 60.8 °F 100% 29.77 in 6.2 mi North 4.6 mph - N/A Rain Light Rain Showers
11:00 PM 60.8 °F 60.8 °F 100% 29.77 in 6.2 mi NNE 3.5 mph - N/A   Mostly Cloudy
11:30 PM 60.8 °F 60.8 °F 100% 29.77 in 6.2 mi North 2.3 mph - N/A Rain Light Rain Showers